Вернуться в каталог

SL-14 R/B

АктивенPO
NORAD 21423·ROCKET BODY·🇷🇺 Russia

Запущен Jun 13, 1991 с Plesetsk Cosmodrome

Loading…

Ближайшие Пролёты (ближайшие 24 часа)

TLE

СвежийSource: Space-Track

Эпоха: Sep 14, 2026, 08:22 UTC

1 21423U 91042B   26257.34870076  .00000277  00000-0  31995-4 0  9992
2 21423  82.4925  43.2574 0016559 346.1894  13.8865 14.81945900881010

Отслеживайте SL-14 R/B в реальном времени с AllMySat

Download on the App Store